BNL101 HLLB-DTTA

Flight info

Callsign BNL101
Flight time 1h 46m
Altitude 30000
Route RIGEM M622 GZO M978 SONAK UM978 DIDON
Aircraft A320/M-VGDW/C

Departure

Time 2026-05-04 08:46
Airport Benina International Airport (HLLB)

Arrival

Time 2026-05-04 10:32
Airport Tunis Carthage International Airport (DTTA)
Time Latitude Longitude Altitude Speed Heading
2026-05-04 08:05 32.08660 20.26652 415 ft 0 kts 209°
2026-05-04 08:37 32.08659 20.26645 405 ft 3 kts 249°
2026-05-04 08:38 32.08697 20.26641 411 ft 10 kts 31°
2026-05-04 08:38 32.08720 20.26712 414 ft 9 kts 94°
2026-05-04 08:38 32.08727 20.26814 410 ft 17 kts 88°
2026-05-04 08:40 32.08131 20.27533 414 ft 11 kts 84°
2026-05-04 08:40 32.08161 20.27613 413 ft 10 kts 59°
2026-05-04 08:40 32.08181 20.27653 412 ft 0 kts 59°
2026-05-04 08:41 32.08182 20.27654 412 ft 0 kts 59°
2026-05-04 08:42 32.08189 20.27668 413 ft 4 kts 59°
2026-05-04 08:42 32.08206 20.27698 412 ft 9 kts 52°
2026-05-04 08:42 32.08273 20.27718 411 ft 9 kts 334°
2026-05-04 08:42 32.08286 20.27709 406 ft 0 kts 331°
2026-05-04 08:43 32.08336 20.27676 411 ft 33 kts 331°
2026-05-04 08:43 32.08758 20.27392 416 ft 103 kts 330°
2026-05-04 08:44 32.09546 20.26860 423 ft 155 kts 329°
2026-05-04 08:44 32.10526 20.26271 960 ft 158 kts 333°
2026-05-04 08:46 32.17048 20.18569 4697 ft 248 kts 311°
2026-05-04 08:46 32.18217 20.16951 5397 ft 260 kts 311°
2026-05-04 08:46 32.19386 20.15315 6273 ft 263 kts 311°
2026-05-04 08:46 32.20563 20.13652 7141 ft 265 kts 310°
2026-05-04 08:47 32.21737 20.11979 7994 ft 266 kts 310°
2026-05-04 08:47 32.22926 20.10280 8840 ft 268 kts 310°
2026-05-04 08:47 32.24121 20.08574 9677 ft 271 kts 311°
2026-05-04 08:47 32.25329 20.06846 10419 ft 277 kts 311°
2026-05-04 08:48 32.26591 20.05039 10817 ft 294 kts 310°
2026-05-04 08:48 32.27928 20.03127 11201 ft 309 kts 310°
2026-05-04 08:48 32.29313 20.01143 11794 ft 316 kts 310°
2026-05-04 08:48 32.30715 19.99132 12531 ft 319 kts 310°
2026-05-04 08:49 32.32139 19.97089 13288 ft 322 kts 309°
2026-05-04 08:50 32.40868 19.84533 17205 ft 335 kts 308°
2026-05-04 08:50 32.42336 19.82417 17824 ft 338 kts 308°
2026-05-04 08:51 32.43848 19.80242 18450 ft 340 kts 308°
2026-05-04 08:51 32.45355 19.78068 19001 ft 342 kts 308°
2026-05-04 08:51 32.46848 19.75908 19534 ft 344 kts 308°
2026-05-04 08:51 32.48385 19.73688 20094 ft 345 kts 308°
2026-05-04 08:52 32.49912 19.71486 20649 ft 347 kts 308°
2026-05-04 08:52 32.51447 19.69271 21197 ft 349 kts 308°
2026-05-04 08:52 32.52991 19.67041 21739 ft 350 kts 308°
2026-05-04 08:52 32.54539 19.64803 22283 ft 352 kts 308°
2026-05-04 08:53 32.56098 19.62551 22819 ft 354 kts 308°
2026-05-04 08:54 32.67197 19.46442 25905 ft 365 kts 307°
2026-05-04 08:55 32.68806 19.44104 26291 ft 366 kts 307°
2026-05-04 08:55 32.70419 19.41754 26666 ft 368 kts 307°
2026-05-04 08:55 32.72034 19.39395 27034 ft 369 kts 307°
2026-05-04 08:55 32.73658 19.37023 27397 ft 370 kts 307°
2026-05-04 08:57 32.85219 19.20147 29761 ft 380 kts 307°
2026-05-04 09:01 33.07174 18.87826 30275 ft 353 kts 307°
2026-05-04 09:01 33.10256 18.83273 30274 ft 353 kts 308°
2026-05-04 09:02 33.13344 18.78706 30273 ft 353 kts 307°
2026-05-04 09:02 33.16424 18.74142 30277 ft 353 kts 307°
2026-05-04 09:03 33.19502 18.69570 30287 ft 353 kts 307°
2026-05-04 09:03 33.22599 18.64969 30278 ft 354 kts 307°
2026-05-04 09:04 33.25677 18.60393 30277 ft 354 kts 307°
2026-05-04 09:04 33.28752 18.55805 30288 ft 353 kts 307°
2026-05-04 09:05 33.31820 18.51224 30281 ft 353 kts 307°
2026-05-04 09:05 33.34901 18.46630 30278 ft 353 kts 307°
2026-05-04 09:06 33.37968 18.42050 30283 ft 353 kts 307°
2026-05-04 09:08 33.50205 18.23695 30276 ft 353 kts 307°
2026-05-04 09:08 33.53264 18.19089 30272 ft 353 kts 308°
2026-05-04 09:09 33.56327 18.14482 30273 ft 353 kts 308°
2026-05-04 09:09 33.58887 18.10619 30276 ft 353 kts 307°
2026-05-04 09:10 33.61942 18.06005 30276 ft 353 kts 308°
2026-05-04 09:10 33.64990 18.01388 30276 ft 353 kts 308°
2026-05-04 09:11 33.68040 17.96779 30277 ft 353 kts 308°
2026-05-04 09:11 33.71083 17.92168 30275 ft 352 kts 307°
2026-05-04 09:12 33.74128 17.87550 30276 ft 352 kts 307°
2026-05-04 09:14 33.86254 17.69076 30277 ft 352 kts 307°
2026-05-04 09:14 33.89296 17.64417 30278 ft 352 kts 307°
2026-05-04 09:15 33.92304 17.59809 30275 ft 352 kts 307°
2026-05-04 09:15 33.95351 17.55156 30274 ft 352 kts 307°
2026-05-04 09:17 34.08928 17.34287 30273 ft 351 kts 307°
2026-05-04 09:18 34.11932 17.29646 30279 ft 351 kts 307°
2026-05-04 09:18 34.14939 17.25008 30277 ft 351 kts 308°
2026-05-04 09:19 34.17942 17.20369 30276 ft 351 kts 307°
2026-05-04 09:19 34.20946 17.15721 30274 ft 351 kts 307°
2026-05-04 09:20 34.23949 17.11081 30273 ft 351 kts 307°
2026-05-04 09:20 34.26943 17.06425 30274 ft 351 kts 307°
2026-05-04 09:21 34.29939 17.01769 30270 ft 351 kts 307°
2026-05-04 09:21 34.32930 16.97108 30274 ft 351 kts 307°
2026-05-04 09:22 34.35914 16.92445 30277 ft 350 kts 307°
2026-05-04 09:22 34.38921 16.87759 30275 ft 350 kts 307°
2026-05-04 09:23 34.41908 16.83094 30272 ft 350 kts 307°
2026-05-04 09:23 34.44892 16.78432 30270 ft 350 kts 307°
2026-05-04 09:25 34.56801 16.59736 30270 ft 350 kts 307°
2026-05-04 09:26 34.59769 16.55056 30269 ft 350 kts 307°
2026-05-04 09:26 34.62739 16.50369 30268 ft 350 kts 307°
2026-05-04 09:27 34.65709 16.45685 30263 ft 350 kts 307°
2026-05-04 09:27 34.68677 16.40991 30266 ft 350 kts 307°
2026-05-04 09:28 34.71642 16.36297 30260 ft 350 kts 307°
2026-05-04 09:28 34.74612 16.31602 30266 ft 350 kts 308°
2026-05-04 09:29 34.77575 16.26897 30259 ft 350 kts 307°
2026-05-04 09:29 34.80539 16.22187 30262 ft 350 kts 307°
2026-05-04 09:30 34.83520 16.17442 30261 ft 350 kts 307°
2026-05-04 09:30 34.86475 16.12723 30266 ft 351 kts 307°
2026-05-04 09:31 34.89435 16.08006 30256 ft 350 kts 307°
2026-05-04 09:31 34.92398 16.03285 30263 ft 351 kts 307°
2026-05-04 09:32 34.95351 15.98561 30255 ft 351 kts 307°
2026-05-04 09:34 35.07190 15.79514 30254 ft 352 kts 307°
2026-05-04 09:34 35.10152 15.74749 30250 ft 352 kts 308°
2026-05-04 09:35 35.13118 15.69984 30250 ft 352 kts 307°
2026-05-04 09:35 35.16074 15.65207 30253 ft 352 kts 307°
2026-05-04 09:37 35.27900 15.46036 30256 ft 353 kts 307°
2026-05-04 09:38 35.30853 15.41233 30255 ft 354 kts 307°
2026-05-04 09:38 35.33811 15.36411 30251 ft 354 kts 307°
2026-05-04 09:39 35.36772 15.31587 30243 ft 354 kts 307°
2026-05-04 09:39 35.39749 15.26725 30250 ft 354 kts 307°
2026-05-04 09:40 35.42700 15.21897 30243 ft 354 kts 307°
2026-05-04 09:40 35.45659 15.17053 30245 ft 355 kts 307°
2026-05-04 09:42 35.56981 14.98452 30246 ft 355 kts 307°
2026-05-04 09:43 35.59932 14.93579 30242 ft 355 kts 307°
2026-05-04 09:43 35.62881 14.88703 30247 ft 356 kts 307°
2026-05-04 09:44 35.65860 14.83782 30243 ft 356 kts 307°
2026-05-04 09:46 35.77668 14.64190 30250 ft 356 kts 307°
2026-05-04 09:46 35.80612 14.59288 30249 ft 356 kts 307°
2026-05-04 09:47 35.83549 14.54385 30246 ft 356 kts 307°
2026-05-04 09:49 35.95322 14.34699 30245 ft 357 kts 307°
2026-05-04 09:51 36.04636 14.16691 30220 ft 360 kts 288°
2026-05-04 09:51 36.06007 14.10741 30228 ft 360 kts 289°
2026-05-04 09:52 36.07398 14.04753 30231 ft 361 kts 289°
2026-05-04 09:52 36.08773 13.98794 30227 ft 360 kts 289°
2026-05-04 09:53 36.10141 13.92850 30229 ft 360 kts 289°
2026-05-04 09:53 36.11516 13.86897 30226 ft 360 kts 289°
2026-05-04 09:54 36.12889 13.80913 30220 ft 360 kts 288°
2026-05-04 09:54 36.14251 13.74951 30225 ft 360 kts 288°
2026-05-04 09:55 36.15607 13.68992 30223 ft 360 kts 288°
2026-05-04 09:55 36.16960 13.63028 30221 ft 360 kts 288°
2026-05-04 09:56 36.18311 13.57068 30220 ft 360 kts 288°
2026-05-04 09:56 36.19661 13.51107 30219 ft 360 kts 288°
2026-05-04 09:57 36.21014 13.45136 30217 ft 360 kts 288°
2026-05-04 09:57 36.22357 13.39160 30214 ft 360 kts 288°
2026-05-04 09:58 36.23696 13.33187 30216 ft 360 kts 288°
2026-05-04 09:58 36.25031 13.27199 30224 ft 361 kts 288°
2026-05-04 10:00 36.30370 13.03177 30217 ft 361 kts 288°
2026-05-04 10:04 36.39615 12.61049 30203 ft 362 kts 287°
2026-05-04 10:04 36.40923 12.55013 30195 ft 362 kts 287°
2026-05-04 10:05 36.42224 12.48977 30201 ft 362 kts 287°
2026-05-04 10:05 36.43530 12.42929 30198 ft 363 kts 287°
2026-05-04 10:06 36.44832 12.36880 30200 ft 363 kts 287°
2026-05-04 10:06 36.46137 12.30811 30190 ft 363 kts 287°
2026-05-04 10:08 36.50668 12.09492 30178 ft 365 kts 286°
2026-05-04 10:08 36.51846 12.03368 30182 ft 365 kts 285°
2026-05-04 10:09 36.53016 11.97183 29742 ft 371 kts 285°
2026-05-04 10:09 36.53609 11.94066 29230 ft 366 kts 285°
2026-05-04 10:09 36.54191 11.91022 28836 ft 359 kts 285°
2026-05-04 10:10 36.54767 11.88027 28449 ft 352 kts 285°
2026-05-04 10:10 36.55331 11.85089 28066 ft 346 kts 285°
2026-05-04 10:10 36.55885 11.82203 27674 ft 341 kts 285°
2026-05-04 10:10 36.56431 11.79360 27293 ft 335 kts 285°
2026-05-04 10:11 36.56967 11.76562 26916 ft 330 kts 285°
2026-05-04 10:11 36.57495 11.73798 26534 ft 325 kts 285°
2026-05-04 10:11 36.58012 11.71079 26155 ft 321 kts 285°
2026-05-04 10:11 36.58520 11.68398 25765 ft 317 kts 285°
2026-05-04 10:12 36.59020 11.65753 25385 ft 313 kts 285°
2026-05-04 10:12 36.59517 11.63136 24996 ft 309 kts 285°
2026-05-04 10:12 36.60010 11.60542 24600 ft 306 kts 285°
2026-05-04 10:12 36.60495 11.57979 24216 ft 303 kts 285°
2026-05-04 10:13 36.60977 11.55430 23827 ft 301 kts 285°
2026-05-04 10:13 36.61301 11.53720 23539 ft 300 kts 285°
2026-05-04 10:13 36.61780 11.51192 23124 ft 299 kts 284°
2026-05-04 10:13 36.62258 11.48673 22703 ft 298 kts 284°
2026-05-04 10:14 36.62725 11.46204 22294 ft 297 kts 284°
2026-05-04 10:14 36.63199 11.43674 21890 ft 295 kts 284°
2026-05-04 10:16 36.66410 11.26457 19145 ft 289 kts 284°
2026-05-04 10:16 36.66862 11.24029 18778 ft 288 kts 284°
2026-05-04 10:16 36.67314 11.21595 18390 ft 288 kts 284°
2026-05-04 10:16 36.67767 11.19164 17977 ft 287 kts 284°
2026-05-04 10:17 36.68216 11.16751 17615 ft 285 kts 284°
2026-05-04 10:17 36.68659 11.14351 17249 ft 284 kts 284°
2026-05-04 10:19 36.72824 10.98327 14811 ft 275 kts 298°
2026-05-04 10:19 36.73733 10.96226 14470 ft 275 kts 298°
2026-05-04 10:19 36.74639 10.94126 14132 ft 275 kts 299°
2026-05-04 10:19 36.75546 10.92022 13767 ft 275 kts 298°
2026-05-04 10:20 36.76452 10.89925 13414 ft 274 kts 299°
2026-05-04 10:20 36.77353 10.87838 13073 ft 272 kts 299°
2026-05-04 10:20 36.78250 10.85763 12733 ft 271 kts 298°
2026-05-04 10:20 36.79143 10.83692 12387 ft 270 kts 298°
2026-05-04 10:21 36.80028 10.81637 12048 ft 269 kts 298°
2026-05-04 10:21 36.80914 10.79585 11698 ft 268 kts 298°
2026-05-04 10:21 36.81798 10.77538 11350 ft 267 kts 298°
2026-05-04 10:21 36.82677 10.75501 11005 ft 266 kts 298°
2026-05-04 10:22 36.84431 10.71429 10296 ft 267 kts 298°
2026-05-04 10:22 36.85309 10.69386 9936 ft 266 kts 298°
2026-05-04 10:22 36.86182 10.67349 9546 ft 265 kts 298°
2026-05-04 10:23 36.87051 10.65321 9187 ft 265 kts 298°
2026-05-04 10:23 36.87923 10.63291 8812 ft 266 kts 298°
2026-05-04 10:25 36.93915 10.49320 6151 ft 254 kts 297°
2026-05-04 10:25 36.94723 10.47427 6017 ft 240 kts 297°
2026-05-04 10:25 36.95490 10.45625 5875 ft 230 kts 297°
2026-05-04 10:25 36.96227 10.43895 5732 ft 220 kts 296°
2026-05-04 10:26 36.96937 10.42225 5600 ft 210 kts 296°
2026-05-04 10:26 36.97612 10.40638 5418 ft 204 kts 296°
2026-05-04 10:26 36.98274 10.39079 5104 ft 204 kts 296°
2026-05-04 10:26 36.98959 10.37465 4560 ft 217 kts 295°
2026-05-04 10:27 36.99683 10.35754 4007 ft 228 kts 295°
2026-05-04 10:27 37.00422 10.34016 3744 ft 223 kts 295°
2026-05-04 10:27 37.01139 10.32337 3593 ft 213 kts 295°
2026-05-04 10:27 37.01780 10.30758 3491 ft 192 kts 285°
2026-05-04 10:28 37.01891 10.29214 3459 ft 171 kts 256°
2026-05-04 10:28 37.01424 10.27861 3332 ft 170 kts 230°
2026-05-04 10:28 37.00496 10.26944 2987 ft 172 kts 202°
2026-05-04 10:28 36.99351 10.26575 2669 ft 166 kts 192°
2026-05-04 10:29 36.98240 10.26282 2378 ft 159 kts 193°
2026-05-04 10:29 36.97203 10.26000 2135 ft 147 kts 192°
2026-05-04 10:29 36.96241 10.25738 1938 ft 135 kts 192°
2026-05-04 10:29 36.95333 10.25490 1764 ft 132 kts 192°
2026-05-04 10:30 36.94451 10.25249 1589 ft 128 kts 192°
2026-05-04 10:30 36.93554 10.25005 1416 ft 137 kts 192°
2026-05-04 10:30 36.92653 10.24758 1228 ft 130 kts 191°
2026-05-04 10:30 36.91769 10.24517 1054 ft 128 kts 191°
2026-05-04 10:31 36.90899 10.24279 892 ft 128 kts 188°
2026-05-04 10:31 36.90024 10.24041 723 ft 128 kts 187°
2026-05-04 10:32 36.85290 10.22755 34 ft 40 kts 193°
2026-05-04 10:33 36.85072 10.22683 35 ft 32 kts 193°
2026-05-04 10:33 36.84933 10.22623 33 ft 14 kts 246°
2026-05-04 10:33 36.84956 10.22513 32 ft 13 kts 292°
2026-05-04 10:33 36.84979 10.22411 31 ft 10 kts 253°
2026-05-04 10:34 36.84915 10.22373 30 ft 15 kts 193°
2026-05-04 10:34 36.84872 10.22293 31 ft 12 kts 283°
2026-05-04 10:34 36.84890 10.22168 30 ft 15 kts 281°
2026-05-04 10:34 36.84879 10.22060 30 ft 12 kts 229°
2026-05-04 10:35 36.84809 10.22031 30 ft 10 kts 188°
2026-05-04 10:35 36.84741 10.22009 30 ft 8 kts 226°
2026-05-04 10:35 36.84704 10.21975 30 ft 6 kts 199°
2026-05-04 10:35 36.84670 10.21962 30 ft 3 kts 198°
2026-05-04 10:36 36.84662 10.21959 30 ft 0 kts 198°